Weather in Arsenjevo

Russia / Tula Oblast     53°44′11″N   36°39′51″E
temp.,
°C
wind,
m/s
gust,
m/s
humid.,
%
clouds,
%
prec.,
mm/h
press.,
hPa
HPBL,
m
13 may, thu
thu1300:00+6ese48963 0.0 1018158
03:00+6e5139592 0.0 1017290
06:00+8ese6139396 0.1 1017453
09:00+10se61091100 0.6 1017687
12:00+10se71389100 4.4 1016720
15:00+13sse697797 4.6 10151110
18:00+14sse477799 0.1 1014829
21:00+10sse3390100 0.2 101538
14 may, fri
fri1400:00+8sse34921 0.0 101653
03:00+8se3694100 0.0 101695
06:00+10ese369392 0.0 1015143
09:00+15se478090 0.0 1015411
12:00+19se6975100 1.4 1013808
15:00+20sse61076100 6.6 10121056
18:00+19sse61181100 1.6 1010662
21:00+16sse51389100 1.9 1010329
15 may, sat
sat1500:00+15sse3790100 0.1 1010137
03:00+14sse310963 0.7 1009196
06:00+14sse489699 0.3 1009218
09:00+17ssw5782100 0.3 1009498
12:00+19sw686714 0.1 10101034
15:00+20sw7863100 0.1 10101531
18:00+18sw577254 0.1 1010945
21:00+14ssw4888100 0.1 1011141
16 may, sun
sun1600:00+12ssw359357 0.0 101299
03:00+11ssw35952 0.0 101294
06:00+11ssw49940 0.0 1013280
09:00+15sw57760 0.0 1014667
12:00+18wsw44650 0.0 10141006
15:00+20sw335977 0.0 10141403
18:00+19s236798 0.0 10141094
21:00+14ese228066 0.0 101411
17 may, mon
mon1700:00+13e448491 0.0 101453
03:00+12ene498985 0.0 1014151
06:00+13ene614875 0.1 1013319
09:00+19e8147746 0.1 1011545
12:00+23e7106637 0.0 1010668
15:00+24ese711595 0.0 10091319
18:00+22ese71468100 0.0 1009642
21:00+19ese6167773 0.0 1009442